{"data":{"norad_id":62869,"epoch":"2026-09-20T09:29:24.148032Z","epoch_age_seconds":177183,"freshness":"STALE","line1":"1 62869U 25022R   26263.39541838  .00013207  00000+0  40124-3 0  9998","line2":"2 62869  53.1588 302.1648 0001050  65.4729 294.6383 15.34405865 91754","mean_motion":15.34405865,"eccentricity":0.000105,"inclination_deg":53.1588,"raan_deg":302.1648,"arg_perigee_deg":65.4729,"mean_anomaly_deg":294.6383,"bstar":0.00040124,"rev_number":9175,"period_min":93.847399364574,"perigee_km":461.96752185177,"apogee_km":463.40409464151,"semimajor_km":6840.8228082466,"source":"CELESTRAK","updated_at":"2026-09-22T09:00:49.700025Z"}}